Location: Burera
(21.3780°N, 81.9534°E)
Time: 01:33:07
(UTC+00:00)

ATLAS 5 CENTAUR R/B - Pass Details

Date: 13 August 2020
Orbit: 533 x 1125 km, 63.4° (Epoch: 19 September)

Event Time Altitude Azimuth Distance (km) Brightness Sun altitude
Rises 14:09:46 0° 342° (NNW) 3,525 6.1 -15.3°
Reaches altitude 10° 14:12:14 10° 347° (NNW) 2,665 5.3 -15.9°
Maximum altitude 14:18:27 53° 63° (ENE) 1,260 2.8 -17.2°
Enters shadow 14:22:12 27° 127° (SE) 1,953 3.5 -18.0°
